Weather History for Pipestone, MN

Change the Weather History Date:

Saturday, January 18, 2014

  Actual Average Record
Temperature  
Mean Temperature 24 °F -  
Max Temperature 33 °F 21 °F 39 °F (2005)
Min Temperature 15 °F 6 °F -11 °F (1997)
Degree Days  
Heating Degree Days 41    
Moisture  
Dew Point 19 °F    
Average Humidity 86    
Maximum Humidity 100    
Minimum Humidity 69    
Precipitation  
Precipitation 0.01 in - - ()
Sea Level Pressure  
Sea Level Pressure 29.73 in    
Wind  
Wind Speed 17 mph (NW)    
Max Wind Speed 32 mph    
Max Gust Speed 48 mph    
Visibility 7 miles    
Events Snow    
Averages and records for this station are not official NWS values.
T = Trace of Precipitation, MM = Missing Value Source: NWS Daily Summary

Daily Weather History Graph

Daily Weather History Graph

Search for Another Location

Airport:

Trip Planner

Search our weather history database for the weather conditions in past years. The results will help you decide how hot, cold, wet, or windy it might be!

Date:

Astronomy

Jan. 18, 2014 Rise Set
Actual Time 7:54 AM CST 5:16 PM CST
Civil Twilight 7:23 AM CST 5:48 PM CST
Nautical Twilight 6:47 AM CST 6:24 PM CST
Astronomical Twilight 6:13 AM CST 6:58 PM CST
Moon 8:07 PM CST (1/18) 8:48 AM CST (1/18)
Length of Visible Light 10h 25m
Length of Day
9h 22m
Waning Gibbous, 94% of the Moon is Illuminated
Jan 18
Waning Gibbous
Jan 23
Last Quarter
Jan 30
New
Feb 6
First Quarter
Feb 14
Full

Hourly Weather History & Observations

Time (CST) Temp. Windchill Dew Point Humidity Pressure Visibility Wind Dir Wind Speed Gust Speed Precip Events Conditions
12:13 AM 24.8 °F 11.9 °F 15.8 °F 69% 29.57 in 10.0 mi SSW 16.1 mph - N/A   Overcast
12:33 AM 24.8 °F 10.7 °F 15.8 °F 69% 29.55 in 10.0 mi SW 19.6 mph - N/A   Overcast
12:53 AM 23.0 °F 8.3 °F 15.8 °F 74% 29.52 in 10.0 mi SW 19.6 mph - N/A   Mostly Cloudy
1:13 AM 23.0 °F 9.2 °F 17.6 °F 80% 29.52 in 10.0 mi WSW 17.3 mph - N/A   Scattered Clouds
1:33 AM 24.8 °F 12.9 °F 17.6 °F 74% 29.53 in 10.0 mi WSW 13.8 mph - N/A   Mostly Cloudy
1:53 AM 26.6 °F 15.2 °F 17.6 °F 69% 29.51 in 10.0 mi WSW 13.8 mph - N/A   Mostly Cloudy
2:14 AM 26.6 °F 16.8 °F 19.4 °F 74% 29.51 in 10.0 mi West 10.4 mph - N/A   Overcast
2:33 AM 28.4 °F 18.0 °F 21.2 °F 74% 29.49 in 10.0 mi West 12.7 mph - N/A   Overcast
2:53 AM 30.2 °F 20.2 °F 26.6 °F 86% 29.49 in 5.0 mi WNW 12.7 mph - N/A Snow Light Snow
3:14 AM 32.0 °F 21.2 °F 28.4 °F 87% 29.48 in 10.0 mi NW 16.1 mph 23.0 mph N/A   Overcast
3:33 AM 33.8 °F 23.2 °F 28.4 °F 81% 29.47 in 10.0 mi NW 17.3 mph 25.3 mph N/A   Overcast
3:53 AM 33.8 °F 23.2 °F 28.4 °F 81% 29.47 in 10.0 mi NW 17.3 mph 21.9 mph N/A   Overcast
4:14 AM 33.8 °F 23.2 °F 30.2 °F 87% 29.46 in 2.0 mi NW 17.3 mph 26.5 mph N/A Snow Light Snow
4:33 AM 33.8 °F 22.8 °F 30.2 °F 87% 29.46 in 5.0 mi NW 18.4 mph 26.5 mph N/A Snow Light Snow
4:53 AM 33.8 °F 22.2 °F 30.2 °F 87% 29.46 in 2.5 mi NW 20.7 mph 26.5 mph N/A Snow Light Snow
5:14 AM 33.8 °F 22.2 °F 32.0 °F 93% 29.46 in 2.5 mi NW 20.7 mph 31.1 mph N/A Snow Light Snow
5:33 AM 33.8 °F 22.2 °F 32.0 °F 93% 29.46 in 4.0 mi NW 20.7 mph 28.8 mph N/A Snow Light Snow
5:53 AM 33.8 °F 21.6 °F 32.0 °F 93% 29.45 in 5.0 mi NW 23.0 mph 27.6 mph N/A Snow Light Snow
6:14 AM 33.8 °F 21.9 °F 30.2 °F 87% 29.44 in 7.0 mi NW 21.9 mph 29.9 mph N/A   Overcast
6:33 AM 33.8 °F 21.0 °F 32.0 °F 93% 29.44 in 4.0 mi NW 25.3 mph 31.1 mph N/A Snow Light Snow
6:53 AM 33.8 °F 21.3 °F 30.2 °F 87% 29.44 in 3.0 mi NW 24.2 mph 36.8 mph 0.01 in Snow Light Snow
7:14 AM 28.4 °F 12.3 °F 26.6 °F 93% 29.47 in 0.8 mi NNW 32.2 mph 48.3 mph N/A Snow Light Snow
7:33 AM 28.4 °F 12.7 °F 26.6 °F 93% 29.48 in - NNW 29.9 mph 40.3 mph N/A   Overcast
7:53 AM 26.6 °F 11.1 °F 24.8 °F 93% 29.51 in - North 26.5 mph 41.4 mph N/A   Unknown
8:13 AM 26.6 °F 10.8 °F 24.8 °F 93% 29.52 in - NNW 27.6 mph 35.7 mph N/A   Unknown
8:33 AM 24.8 °F 8.1 °F 23.0 °F 93% 29.55 in - North 28.8 mph 40.3 mph N/A   Overcast
8:53 AM 23.0 °F 7.2 °F 21.2 °F 93% 29.58 in - North 23.0 mph 42.6 mph N/A   Overcast
9:13 AM 21.2 °F 3.5 °F 19.4 °F 93% 29.60 in - North 27.6 mph 47.2 mph N/A   Overcast
9:33 AM 19.4 °F 1.4 °F 17.6 °F 93% 29.64 in - North 26.5 mph 43.7 mph N/A   Unknown
9:53 AM 17.6 °F -0.3 °F 15.8 °F 93% 29.68 in - North 24.2 mph 34.5 mph N/A   Unknown
10:13 AM 17.6 °F -0.3 °F 14.0 °F 86% 29.71 in - North 24.2 mph 29.9 mph N/A   Unknown
10:33 AM 17.6 °F 1.7 °F 14.0 °F 86% 29.74 in - North 18.4 mph 27.6 mph N/A   Unknown
10:53 AM 15.8 °F -2.7 °F 12.2 °F 86% 29.78 in - North 24.2 mph 32.2 mph N/A   Unknown
11:13 AM 15.8 °F -1.9 °F 12.2 °F 86% 29.80 in - North 21.9 mph 29.9 mph N/A   Unknown
11:33 AM 15.8 °F -1.9 °F 12.2 °F 86% 29.81 in - North 21.9 mph 27.6 mph N/A   Unknown
11:53 AM 15.8 °F -2.3 °F 12.2 °F 86% 29.82 in - North 23.0 mph 26.5 mph N/A   Overcast
12:13 PM 15.8 °F -2.3 °F 12.2 °F 86% 29.84 in - North 23.0 mph 32.2 mph N/A   Overcast
12:33 PM 15.8 °F -0.2 °F 12.2 °F 86% 29.84 in - North 17.3 mph 27.6 mph N/A   Overcast
12:53 PM 17.6 °F 2.7 °F 12.2 °F 79% 29.85 in - North 16.1 mph 23.0 mph N/A   Scattered Clouds
1:13 PM 17.6 °F 3.2 °F 12.2 °F 79% 29.87 in - North 15.0 mph 21.9 mph N/A   Clear
1:33 PM 17.6 °F 3.2 °F 12.2 °F 79% 29.88 in - North 15.0 mph 24.2 mph N/A   Clear
1:53 PM 17.6 °F 3.7 °F 12.2 °F 79% 29.89 in - North 13.8 mph 21.9 mph N/A   Clear
2:13 PM 17.6 °F 1.7 °F 12.2 °F 79% 29.90 in - NNW 18.4 mph 24.2 mph N/A   Clear
2:33 PM 17.6 °F 1.7 °F 12.2 °F 79% 29.93 in - North 18.4 mph 25.3 mph N/A   Clear
2:53 PM 19.4 °F 5.5 °F 12.2 °F 74% 29.95 in - NNW 15.0 mph - N/A   Clear
3:13 PM 19.4 °F 7.2 °F 12.2 °F 74% 29.96 in - NNW 11.5 mph 27.6 mph N/A   Clear
3:33 PM 19.4 °F 4.5 °F 14.0 °F 80% 29.96 in - North 17.3 mph 24.2 mph N/A   Clear
3:53 PM 19.4 °F 6.0 °F 14.0 °F 80% 29.97 in - NNW 13.8 mph 21.9 mph N/A   Clear
4:13 PM 19.4 °F 7.2 °F 12.2 °F 74% 29.99 in - NNW 11.5 mph 18.4 mph N/A   Clear
4:33 PM 17.6 °F 5.0 °F 14.0 °F 86% 30.00 in - NNW 11.5 mph 16.1 mph N/A   Unknown
4:53 PM 17.6 °F 5.7 °F 14.0 °F 86% 29.98 in - NW 10.4 mph - N/A   Unknown
5:13 PM 17.6 °F 8.2 °F 12.2 °F 79% 29.99 in - WNW 6.9 mph - N/A   Unknown
5:33 PM 15.8 °F 3.4 °F 12.2 °F 86% 29.99 in - NW 10.4 mph - N/A   Unknown
5:53 PM 17.6 °F 7.3 °F 12.2 °F 79% 29.98 in - NW 8.1 mph - N/A   Unknown
6:13 PM 15.8 °F 0.3 °F 12.2 °F 86% 29.98 in - NW 16.1 mph - N/A   Unknown
6:33 PM 15.8 °F 5.1 °F 12.2 °F 86% 29.96 in - NW 8.1 mph - N/A   Unknown
6:53 PM 15.8 °F 0.9 °F 14.0 °F 93% 29.96 in - NW 15.0 mph 20.7 mph N/A   Unknown
7:13 PM 17.6 °F 6.4 °F 15.8 °F 93% 29.94 in - WNW 9.2 mph - N/A   Overcast
7:33 PM - - - N/A% - - North - - N/A   Unknown
7:53 PM 17.6 °F 5.7 °F 17.6 °F 100% 29.92 in - NW 10.4 mph 16.1 mph N/A   Overcast
8:13 PM - - - N/A% 29.90 in - WNW 8.1 mph - N/A   Unknown
8:33 PM 17.6 °F 9.3 °F 17.6 °F 100% 29.89 in - West 5.8 mph - N/A   Unknown
8:53 PM 19.4 °F 11.5 °F 17.6 °F 93% 29.88 in - West 5.8 mph - N/A   Unknown
9:13 PM 19.4 °F 9.5 °F 17.6 °F 93% 29.89 in - West 8.1 mph - N/A   Unknown
9:33 PM 19.4 °F 7.9 °F 17.6 °F 93% 29.87 in - WSW 10.4 mph - N/A   Unknown
9:53 PM 19.4 °F 7.2 °F 17.6 °F 93% 29.86 in - WSW 11.5 mph - N/A   Unknown
10:13 PM 19.4 °F 8.6 °F 17.6 °F 93% 29.87 in - West 9.2 mph - N/A   Unknown
10:33 PM 19.4 °F 6.6 °F 17.6 °F 93% 29.86 in - WSW 12.7 mph - N/A   Unknown
10:53 PM 19.4 °F 4.5 °F 17.6 °F 93% 29.82 in - WSW 17.3 mph - N/A   Unknown
11:13 PM 19.4 °F 5.0 °F 17.6 °F 93% 29.81 in - WSW 16.1 mph - N/A   Unknown
11:33 PM 19.4 °F 4.5 °F 17.6 °F 93% 29.80 in - WSW 17.3 mph - N/A   Unknown
11:53 PM 19.4 °F 6.6 °F 17.6 °F 93% 29.79 in - WSW 12.7 mph - N/A   Unknown